FW4407 Weather Reports


Display with metric or nautical units.
time (UTC)temp
F
wind
direction
speed
MPH
gust
MPH
rain 1hr
in
rain 24hr
in
rain mn
in
humidity
%
barometer
mb
20260507172016 71 0.0 0.0 0.00 0.00 0.00 46 1017.5
20260507171021 71 210 0.0 2.0 0.00 0.00 0.00 36 1017.1
20260507170026 71 0.0 0.0 0.00 0.00 0.00 37 1016.9
20260507165031 72 0.0 0.0 0.00 0.00 0.00 36 1016.8
20260507164039 72 0.0 0.0 0.00 0.00 0.00 36 1016.7
20260507163024 72 185 0.0 5.0 0.00 0.00 0.00 35 1016.8
20260507162029 73 251 0.0 5.0 0.00 0.00 0.00 34 1016.9
20260507161017 73 235 0.0 2.0 0.00 0.00 0.00 34 1017.0
20260507160022 74 254 1.0 5.0 0.00 0.00 0.00 35 1016.9
20260507155027 75 230 0.0 5.0 0.00 0.00 0.00 35 1017.0
20260507154015 75 253 1.0 8.0 0.00 0.00 0.00 33 1017.1
20260507153020 76 244 3.0 10.0 0.00 0.00 0.00 32 1017.3
20260507152025 76 224 2.0 8.0 0.00 0.00 0.00 32 1017.5
20260507151030 76 240 1.0 8.0 0.00 0.00 0.00 32 1017.2
20260507150018 76 253 1.0 10.0 0.00 0.00 0.00 32 1017.4
20260507145023 76 254 1.0 10.0 0.00 0.00 0.00 32 1017.2
20260507144028 76 223 2.0 8.0 0.00 0.00 0.00 32 1017.3
20260507143016 77 240 3.0 10.0 0.00 0.00 0.00 32 1017.3
20260507142021 77 240 3.0 10.0 0.00 0.00 0.00 31 1017.2
20260507141046 78 240 3.0 10.0 0.00 0.00 0.00 30 1017.1
20260507140031 79 237 3.0 10.0 0.00 0.00 0.00 29 1016.9
20260507135019 79 229 3.0 10.0 0.00 0.00 0.00 29 1016.9
20260507134024 78 236 3.0 10.0 0.00 0.00 0.00 29 1016.8
20260507133029 77 237 1.0 8.0 0.00 0.00 0.00 30 1016.8
20260507132017 76 234 2.0 13.0 0.00 0.00 0.00 37 1016.8
20260507131042 75 278 1.0 8.0 0.00 0.00 0.00 41 1016.8
20260507130027 75 258 1.0 5.0 0.00 0.00 0.00 44 1017.1
20260507125015 76 269 2.0 8.0 0.00 0.00 0.00 44 1017.2
20260507124020 76 249 2.0 10.0 0.00 0.00 0.00 43 1017.2
20260507123045 77 245 2.0 8.0 0.00 0.00 0.00 45 1017.2
20260507122030 78 266 2.0 8.0 0.00 0.00 0.00 44 1017.5
20260507121018 78 258 2.0 10.0 0.00 0.00 0.00 43 1017.5
20260507120023 78 20 1.0 5.0 0.00 0.00 0.00 43 1017.5
20260507115028 78 270 2.0 10.0 0.00 0.00 0.00 46 1017.6
20260507114016 78 239 2.0 8.0 0.00 0.00 0.00 45 1017.6
20260507113041 77 244 2.0 8.0 0.00 0.00 0.00 44 1017.6
20260507112027 77 226 3.0 8.0 0.00 0.00 0.00 46 1017.9
20260507111031 77 283 3.0 10.0 0.00 0.00 0.00 49 1017.6
20260507110039 77 275 1.0 8.0 0.00 0.00 0.00 51 1017.6
20260507105024 78 245 3.0 10.0 0.00 0.00 0.00 49 1017.6
20260507104029 78 251 3.0 10.0 0.00 0.00 0.00 46 1017.6
20260507103037 78 243 0.0 8.0 0.00 0.00 0.00 46 1017.2
20260507102022 78 322 0.0 5.0 0.00 0.00 0.00 47 1017.3
20260507101027 78 229 3.0 13.0 0.00 0.00 0.00 43 1017.4
20260507100032 78 285 1.0 5.0 0.00 0.00 0.00 46 1017.3
20260507095020 77 247 2.0 10.0 0.00 0.00 0.00 44 1017.3
20260507094025 78 240 2.0 8.0 0.00 0.00 0.00 41 1017.2
20260507093030 78 243 2.0 8.0 0.00 0.00 0.00 40 1017.3
20260507092018 78 322 2.0 8.0 0.00 0.00 0.00 41 1017.2
20260507091023 77 297 1.0 8.0 0.00 0.00 0.00 40 1017.3
20260507090047 77 181 1.0 8.0 0.00 0.00 0.00 41 1017.2
20260507085015 77 257 1.0 5.0 0.00 0.00 0.00 41 1017.2
20260507084021 77 273 0.0 2.0 0.00 0.00 0.00 40 1017.3
20260507083026 76 273 0.0 2.0 0.00 0.00 0.00 40 1017.3
20260507082051 76 236 1.0 5.0 0.00 0.00 0.00 41 1017.3
20260507081039 75 232 2.0 8.0 0.00 0.00 0.00 43 1017.3
20260507080024 75 273 0.0 5.0 0.00 0.00 0.00 42 1017.4
20260507075028 75 266 1.0 5.0 0.00 0.00 0.00 44 1017.3
20260507074017 75 227 1.0 2.0 0.00 0.00 0.00 45 1017.1
20260507073530 75 0.0 0.0 0.00 0.00 0.00 45 1016.9
20260507072519 75 0.0 0.0 0.00 0.00 0.00 44 1016.9
20260507071523 74 230 1.0 5.0 0.00 0.00 0.00 45 1017.0
20260507070549 74 222 0.0 2.0 0.00 0.00 0.00 45 1017.2
20260507065516 73 235 1.0 5.0 0.00 0.00 0.00 46 1017.2
20260507064522 74 251 2.0 8.0 0.00 0.00 0.00 46 1017.0
20260507063526 73 0.0 0.0 0.00 0.00 0.00 47 1016.9
20260507062531 72 254 1.0 5.0 0.00 0.00 0.00 46 1016.9
20260507061519 71 0.0 0.0 0.00 0.00 0.00 44 1016.9
20260507060524 69 0.0 0.0 0.00 0.00 0.00 47 1016.8
20260507055529 68 0.0 0.0 0.00 0.00 0.00 50 1016.5
20260507054518 68 0.0 0.0 0.00 0.00 0.00 52 1016.5
20260507053523 68 8 0.0 2.0 0.00 0.00 0.00 51 1016.2
20260507052527 67 0.0 0.0 0.00 0.00 0.00 52 1016.2
20260507051516 65 116 0.0 2.0 0.00 0.00 0.00 53 1016.1
20260507050521 63 150 0.0 2.0 0.00 0.00 0.00 54 1016.2
20260507045547 62 0.0 0.0 0.00 0.00 0.00 57 1016.3
20260507044530 62 16 1.0 5.0 0.00 0.00 0.00 59 1016.1
20260507043518 61 0.0 0.0 0.00 0.00 0.00 58 1016.1
20260507042523 60 0.0 0.0 0.00 0.00 0.00 58 1016.1
20260507041528 59 0.0 0.0 0.00 0.00 0.00 61 1016.1
20260507040516 58 0.0 0.0 0.00 0.00 0.00 62 1016.2
20260507035522 58 0.0 0.0 0.00 0.00 0.00 64 1016.2
20260507034526 58 0.0 0.0 0.00 0.00 0.00 65 1016.2
20260507033551 58 0.0 0.0 0.00 0.00 0.00 66 1016.1
20260507032520 58 0.0 0.0 0.00 0.00 0.00 67 1016.1
20260507031525 58 0.0 0.0 0.00 0.00 0.00 67 1016.0
20260507030529 58 0.0 0.0 0.00 0.00 0.00 67 1016.0
20260507025517 58 0.0 0.0 0.00 0.00 0.00 67 1015.8
20260507024523 58 0.0 0.0 0.00 0.00 0.00 67 1015.9
20260507023547 58 0.0 0.0 0.00 0.00 0.00 66 1016.1
20260507022515 57 0.0 0.0 0.00 0.00 0.00 66 1015.8
20260507021520 57 0.0 0.0 0.00 0.00 0.00 66 1015.8
20260507020525 57 0.0 0.0 0.00 0.00 0.00 66 1015.7
20260507015531 58 0.0 0.0 0.00 0.00 0.00 66 1015.7
20260507014518 58 0.0 0.0 0.00 0.00 0.00 66 1015.7
20260507013523 59 0.0 0.0 0.00 0.00 0.00 65 1015.6
20260507012529 59 0.0 0.0 0.00 0.00 0.00 64 1015.4
20260507011516 59 0.0 0.0 0.00 0.00 0.00 64 1015.2
20260507010522 59 0.0 0.0 0.00 0.00 0.00 65 1015.2
20260507005526 59 0.0 0.0 0.00 0.00 0.00 65 1015.2
20260507004531 59 0.0 0.0 0.00 0.00 0.00 65 1015.2
20260507003519 60 0.0 0.0 0.00 0.00 0.00 64 1015.2
20260507002524 60 0.0 0.0 0.00 0.00 0.00 64 1015.1
20260507001550 60 0.0 0.0 0.00 0.00 0.00 63 1015.2
20260507000517 60 0.0 0.0 0.00 0.00 0.00 63 1015.2
20260506235522 60 0.0 0.0 0.00 0.00 0.00 62 1015.3
20260506234527 61 0.0 0.0 0.00 0.00 0.00 61 1015.6
20260506233515 61 0.0 0.0 0.00 0.00 0.00 61 1015.6
20260506232520 61 0.0 0.0 0.00 0.00 0.00 61 1015.9
20260506231525 61 0.0 0.0 0.00 0.00 0.00 61 1015.9
20260506230531 61 0.0 0.0 0.00 0.00 0.00 61 1015.9
20260506225538 62 0.0 0.0 0.00 0.00 0.00 61 1015.9
20260506224523 62 0.0 0.0 0.00 0.00 0.00 60 1015.9
20260506223528 62 0.0 0.0 0.00 0.00 0.00 60 1015.9
20260506222515 62 0.0 0.0 0.00 0.00 0.00 59 1015.9
20260506221521 63 0.0 0.0 0.00 0.00 0.00 60 1016.0
20260506220526 63 0.0 0.0 0.00 0.00 0.00 59 1016.0
20260506215526 64 0.0 0.0 0.00 0.00 0.00 58 1016.0
20260506214531 64 0.0 0.0 0.00 0.00 0.00 55 1016.1
20260506213519 64 0.0 0.0 0.00 0.00 0.00 53 1016.2
20260506212524 64 0.0 0.0 0.00 0.00 0.00 52 1016.3
20260506211529 64 0.0 0.0 0.00 0.00 0.00 51 1016.3
20260506210517 64 0.0 0.0 0.00 0.00 0.00 52 1016.3
20260506205522 64 0.0 0.0 0.00 0.00 0.00 52 1016.5
20260506204527 64 0.0 0.0 0.00 0.00 0.00 51 1016.5
20260506203515 65 0.0 0.0 0.00 0.00 0.00 50 1016.5
20260506202520 65 0.0 0.0 0.00 0.00 0.00 49 1016.5
20260506201525 66 0.0 0.0 0.00 0.00 0.00 49 1016.5
20260506200530 66 0.0 0.0 0.00 0.00 0.00 47 1016.2
20260506195518 67 0.0 0.0 0.00 0.00 0.00 47 1016.2
20260506194523 67 0.0 0.0 0.00 0.00 0.00 46 1016.2
20260506193528 67 0.0 0.0 0.00 0.00 0.00 46 1016.0
20260506192515 67 0.0 0.0 0.00 0.00 0.00 45 1015.9
20260506191521 67 0.0 0.0 0.00 0.00 0.00 45 1015.9
20260506190526 68 0.0 0.0 0.00 0.00 0.00 44 1015.8
20260506185531 68 0.0 0.0 0.00 0.00 0.00 43 1015.6
20260506184534 68 0.0 0.0 0.00 0.00 0.00 43 1015.7
20260506183525 68 0.0 0.0 0.00 0.00 0.00 44 1015.6
20260506182529 68 0.0 0.0 0.00 0.00 0.00 44 1015.4
20260506181517 68 0.0 0.0 0.00 0.00 0.00 45 1015.3
20260506180542 68 0.0 0.0 0.00 0.00 0.00 45 1015.1
20260506175527 69 1 1.0 5.0 0.00 0.00 0.00 45 1015.1
20260506174515 69 0.0 0.0 0.00 0.00 0.00 45 1015.1
20260506173520 70 329 0.0 5.0 0.00 0.00 0.00 45 1015.0
20260506172525 70 0.0 0.0 0.00 0.00 0.00 44 1015.0